Location: Bransat
(46.3204°N, 3.2294°E)
Time: 07:21:42
(UTC+00:00)

Daily predictions for brighter satellites

Satellite Brightness Start Highest point End
(mag) Time Altitude Azimuth Time Altitude Azimuth Time Altitude Azimuth
Cosmos 2184 Rocket 4.0 18:09:22 10° N 18:15:37 72° E 18:21:53 10° SSE
GP-B 3.4 18:14:36 10° NNE 18:18:53 45° E 18:23:08 10° SSE
NOAA 11 4.3 18:15:25 10° SSE 18:20:48 57° ENE 18:26:10 10° N
Cosmos 1743 4.3 18:17:43 10° SSW 18:21:22 41° WNW 18:25:04 10° N
Cosmos 1536 Rocket 3.6 18:17:09 10° N 18:21:31 88° WSW 18:25:50 10° S
COSMOS 2428 2.7 18:15:56 10° NNW 18:21:38 80° ENE 18:27:20 10° SSE
Cosmos 2322 4.3 18:16:01 10° NNW 18:21:41 62° WSW 18:27:18 10° S
Cosmos 2360 Rocket 3.9 18:17:34 10° NW 18:22:44 37° WSW 18:27:52 10° S
Meteor 2-15 4.5 18:16:53 10° S 18:22:57 67° E 18:29:04 10° NNE
NOSS 0 Rocket 4.2 18:18:00 10° NNW 18:24:05 54° NE 18:30:10 10° SE
Cosmos 1461 2.9 18:20:50 10° SW 18:24:51 81° NW 18:28:50 10° NE
SJ-6B 4.3 18:22:34 10° ESE 18:25:37 21° ENE 18:28:40 10° NNE
SL-8 R/B 3.8 18:21:07 10° WSW 18:25:55 84° NNW 18:30:44 10° ENE
Cosmos 1544 3.2 18:25:09 10° S 18:28:37 49° E 18:32:07 10° NNE
YAOGAN 1 3.1 18:24:40 10° S 18:28:58 63° W 18:33:16 10° NNW
NOSS 3-4 (A) 3.9 18:22:05 10° NW 18:29:02 69° NE 18:36:39 10° SE
NOSS 3-4 (C) 3.9 18:22:12 10° NW 18:29:08 68° NE 18:36:44 10° SE
COSMOS 2455 3.7 18:23:42 10° NW 18:29:33 53° WSW 18:35:21 10° S
USA 32 4.3 18:24:47 10° N 18:30:02 74° W 18:35:14 10° S
Cosmos 389 Rocket 3.7 18:27:32 10° NNE 18:30:19 22° ENE 18:33:05 10° SE
Aureole 1 Rocket 3.3 18:27:03 10° NNW 18:32:15 76° WSW 18:36:09 10° SSE
Ariane Rocket 3.0 18:27:33 10° SSE 18:32:34 70° ENE 18:37:38 10° N
CZ-2D R/B 3.2 18:29:45 10° SSE 18:33:32 80° ENE 18:37:21 10° N
DMSP B5D1-3 4.5 18:28:36 10° NNE 18:33:42 72° ESE 18:38:47 10° S
MOS 1 4.5 18:32:23 10° SE 18:37:54 53° ENE 18:43:25 10° N
Cosmos 2227 Rocket 3.2 18:34:31 10° SSE 18:38:56 24° ESE 18:43:23 10° NE
ARGOS 4.2 18:35:16 10° ESE 18:39:36 26° ENE 18:43:57 10° N
Nadezhda 1 Rocket 3.9 18:35:25 10° S 18:41:26 72° E 18:47:31 10° NNE
Cosmos 2219 3.6 18:36:16 10° S 18:41:39 43° ESE 18:47:02 10° NE
HJ-1C 3.4 18:38:27 10° SSE 18:41:46 61° ENE 18:45:08 10° N
Cosmos 2327 Rocket 4.5 18:36:24 10° N 18:42:40 86° E 18:48:48 10° S
GEOS 3 Rocket 3.6 18:37:46 10° SE 18:42:50 68° NE 18:47:56 10° NW
Cosmos 407 Rocket 3.8 18:38:24 10° N 18:43:21 45° ENE 18:48:15 10° SE
Cosmos 1939 Rocket 2.7 18:39:33 10° SSE 18:43:24 88° ENE 18:47:17 10° NNW
Cosmos 2056 Rocket 4.3 18:38:44 10° SSE 18:43:26 31° E 18:48:09 10° NE
USA 186 2.8 18:40:49 10° SE 18:43:44 29° ENE 18:46:46 10° N
Lacrosse 5 rocket 2.5 18:42:09 10° S 18:44:43 18° SE 18:46:01 16° E
ADEOS Rocket 4.2 18:39:25 10° NNE 18:45:44 29° E 18:52:17 10° SSE
Okean 1-7 Rocket 4.3 18:43:20 10° N 18:47:24 34° ENE 18:51:27 10° SE
Cosmos 2297 Rocket 2.9 18:44:30 10° SSE 18:49:22 30° ESE 18:54:15 10° NE
USA 234 4.3 18:46:58 10° NE 18:53:04 43° NNW 18:59:11 10° W
Cosmos 1624 Rocket 4.4 18:50:17 10° S 18:55:04 39° ESE 18:59:52 10° NE
Meteor 1-15 Rocket 4.4 18:54:13 10° SSE 18:59:46 51° E 19:05:26 10° NNE
Meteor 1-4 Rocket 3.0 18:57:30 10° N 19:00:51 38° ENE 19:02:40 21° SE
Cosmos 405 Rocket 3.2 18:58:34 10° SSE 19:01:56 35° E 19:05:20 10° NNE
Cosmos 1140 Rocket 3.8 19:00:01 10° NNW 19:05:02 47° ENE 19:08:26 19° SE
Cosmos 1437 Rocket 3.9 19:02:04 10° NNE 19:05:09 23° ENE 19:05:42 22° E
CZ-2C R/B 4.1 19:04:56 20° ESE 19:07:25 28° ENE 19:12:04 10° N
ASTEX 1 3.3 19:05:17 10° N 19:10:11 74° E 19:15:04 10° S
ATLAS 2AS CENTAUR R/B 3.5 19:05:03 10° NW 19:12:28 55° WSW 19:19:15 10° SSE
In-Cosmos 22 4.1 19:07:26 10° N 19:12:48 66° ENE 19:18:14 10° SSE
EO 1 Delta rocket 4.4 19:06:42 10° SSE 19:13:25 83° E 19:18:46 10° N
Cosmos 2084 Rocket 3.9 19:09:36 10° SSW 19:13:47 41° ESE 19:17:39 12° NE
Cosmos 1544 Rocket 4.3 19:11:24 19° SE 19:13:49 32° E 19:17:49 10° NNE
Cosmos 1455 Rocket 3.5 19:10:05 10° SSE 19:14:12 40° E 19:18:22 10° NNE
Cosmos 2333 Rocket 3.5 19:09:33 10° NW 19:14:53 42° WSW 19:20:13 10° S
SPOT 3 Rocket 3.5 19:10:34 11° SSE 19:15:30 66° ENE 19:20:38 10° N
Meteor 1-24 Rocket 4.4 19:13:05 10° N 19:18:27 38° ENE 19:21:13 25° ESE
Cosmos 2237 Rocket 2.2 19:14:05 10° NNW 19:19:49 89° ENE 19:24:31 16° SSE
SJ-11-01 4.3 19:17:31 10° SSE 19:22:16 85° WSW 19:27:03 10° NNW
Cosmos 1674 3.4 19:19:22 10° N 19:22:42 31° ENE 19:22:42 31° ENE
ERBS 3.4 19:19:48 10° NW 19:22:54 32° NNE 19:23:37 29° NE
ISS -3.7 19:22:57 10° SW 19:26:11 51° SE 19:26:21 50° SE
Cosmos 1371 Rocket 3.9 19:21:09 10° SSW 19:26:27 83° ESE 19:31:51 10° NNE
Cosmos 2341 Rocket 4.0 19:21:37 10° N 19:27:55 88° W 19:34:07 10° S
Cosmos 2181 Rocket 3.9 19:22:29 10° S 19:28:39 67° E 19:34:57 10° NNE
Cosmos 1980 3.8 19:23:48 10° NNW 19:29:27 74° WSW 19:34:07 15° SSE
Cosmos 1805 4.1 19:30:39 31° ENE 19:30:39 31° ENE 19:33:23 10° NNE
RESURS DK-1 4.0 19:27:35 10° N 19:30:37 19° NE 19:30:49 19° NE
Cosmos 1626 Rocket 4.2 19:29:18 10° N 19:33:16 34° ENE 19:33:19 34° ENE
CZ-2C R/B 3.7 19:31:08 10° N 19:35:36 77° WNW 19:40:00 10° SSW
Cosmos 1452 Rocket 4.3 19:38:51 30° ENE 19:38:51 30° ENE 19:42:27 10° NE
Cosmos 676 Rocket 3.9 19:33:37 10° NNW 19:38:54 73° ENE 19:41:12 34° SE
Resurs 1-3 3.5 19:42:46 46° SE 19:43:52 64° ENE 19:48:13 10° N
Meteor 2-17 Rocket 4.5 19:38:27 10° N 19:44:33 81° W 19:50:24 11° S
Cosmos 2218 Rocket 3.9 19:38:17 10° N 19:44:42 77° E 19:49:01 22° SSE
Meteor 2-5 Rocket 3.7 19:39:08 10° N 19:45:00 81° E 19:48:44 24° SSE
H-2A R/B 1.9 19:42:42 26° SSE 19:45:34 88° ENE 19:50:39 10° NNW
Cosmos 2366 rocket 3.9 19:40:18 10° N 19:46:41 74° E 19:50:40 24° SSE
Cosmos 864 Rocket 4.4 19:42:37 10° N 19:48:53 74° E 19:52:28 27° SSE
KORONAS-FOTON 4.0 19:46:06 10° N 19:49:22 52° NE 19:49:22 52° NE
SL-16 R/B 2.2 19:45:40 10° NNW 19:51:20 64° ENE 19:52:58 45° ESE
Cosmos 2219 Rocket 4.5 19:48:57 10° NW 19:53:03 21° W 19:57:07 10° SSW
Resurs 01 Rocket 1.6 19:53:03 59° ESE 19:53:29 62° ENE 19:57:53 10° N
Cosmos 1602 Rocket 4.0 19:50:16 10° N 19:53:55 42° NE 19:53:55 42° NE
Meteor 1-22 Rocket 4.3 19:51:40 19° S 19:56:06 63° E 20:02:09 10° NNE
SL-8 Rocket 4.1 19:50:01 10° NNW 19:56:12 76° W 20:01:19 15° S
SJ-6B 4.1 19:57:07 16° SSW 20:00:01 40° W 20:03:53 10° NNW
CZ-2C R/B 4.1 19:56:20 10° NNE 19:58:59 23° NE 19:58:59 23° NE
SL-08 RB Rocket 3.6 20:01:13 54° SSE 20:02:16 90° E 20:06:59 10° NNW
Cosmos 2082 3.6 20:00:30 10° SSW 20:06:13 74° ESE 20:11:56 10° NNE
SL-8 R/B 3.8 20:03:54 10° WNW 20:08:42 69° N 20:09:16 62° NE
Cosmos 1850 Rocket 4.1 20:06:19 10° NNW 20:11:24 56° ENE 20:11:24 56° ENE
MetOp-B 4.2 20:12:35 54° ENE 20:12:39 55° ENE 20:17:52 10° N
DELTA 2 R/B (1) 4.2 20:08:01 10° WSW 20:12:47 40° S 20:12:47 40° S
Cosmos 1626 4.4 20:10:40 10° N 20:11:44 17° NNE 20:11:44 17° NNE
Cosmos 1766 3.6 20:15:14 62° NW 20:15:14 62° NW 20:18:51 10° N
ARGOS 3.8 20:16:39 25° SSW 20:19:33 51° W 20:24:49 10° NNW
Cosmos 2227 Rocket 2.8 20:17:00 10° SW 20:22:34 57° WNW 20:28:11 10° NNE
Lacrosse 5 rocket 2.7 20:19:48 10° WSW 20:21:44 29° WSW 20:21:44 29° WSW
Cosmos 1420 Rocket 4.1 20:25:01 10° SSW 20:30:19 75° WNW 20:35:41 10° NNE
ADEOS Rocket 3.8 20:24:19 10° N 20:31:36 67° WNW 20:39:16 10° SSW
Cosmos 2297 Rocket 3.2 20:27:46 10° SW 20:33:13 46° NW 20:38:40 10° NNE
BREEZE M DEB (TANK) 3.2 20:31:24 10° WNW 20:33:28 50° NW 20:33:28 50° NW
USA 234 4.4 20:31:34 20° NE 20:35:11 35° N 20:41:00 10° WNW
ERS-1 Rocket 4.1 20:40:43 34° NNE 20:40:43 34° NNE 20:43:55 10° N
Cosmos 1741 Rocket 4.1 20:36:20 10° NNW 20:41:12 74° NNW 20:41:12 74° NNW
Meteor 2-12 Rocket 4.3 20:38:44 10° N 20:44:34 76° NE 20:44:34 76° NE
SPOT 1/Viking Rocket 4.5 20:46:26 39° NNE 20:46:26 39° NNE 20:49:56 10° N
CZ-2C R/B 3.9 20:46:00 41° SW 20:47:01 46° W 20:52:20 10° NNW
Spot 2 Rocket 3.8 20:49:00 62° WNW 20:49:00 62° WNW 20:53:26 10° NNW
DMSP B5D2-2 4.3 20:46:27 10° N 20:51:28 67° NW 20:51:28 67° NW
Cosmos 1943 4.0 20:47:34 10° NNW 20:51:54 40° NNE 20:51:54 40° NNE
Cosmos 1934 Rocket 4.3 20:49:54 10° N 20:54:50 54° NNE 20:54:50 54° NNE
SPOT 5 4.4 21:07:32 30° N 21:07:32 30° N 21:10:09 10° N
Nadezhda 3 Rocket 4.5 21:23:40 54° WNW 21:23:40 54° WNW 21:29:45 10° N
Terra 3.9 21:33:20 22° N 21:33:20 22° N 21:35:04 10° N
Resurs 01 Rocket 4.3 21:30:38 15° W 21:30:38 15° W 21:32:53 10° NW
SL-16 R/B 4.1 21:30:45 10° NW 21:34:51 21° W 21:34:51 21° W
CZ-2C R/B 3.9 21:36:21 10° N 21:40:29 39° NW 21:40:29 39° NW
CZ-4C R/B 3.9 21:44:34 10° NNW 21:50:38 34° NNE 21:50:38 34° NNE
USA 234 4.2 22:18:54 44° NNW 22:18:54 44° NNW 22:23:43 10° NW
Cosmos 2263 Rocket 4.5 22:33:29 18° NNE 22:33:29 18° NNE 22:35:01 10° NNE
CZ-4C R/B 4.3 23:32:51 10° NW 23:35:47 28° NW 23:35:47 28° NW
